NSS-11

Last updated on Thu Jul 03 2025 00:02:44 GMT+0000 (Coordinated Universal Time)

1 26554U 00059A 25183.53004487 .00000032 00000+0 00000+0 0 9999 2 26554 1.2219 85.6951 0003016 9.2135 192.6996 1.00271722 37782
UTC large
Height (km)
Speed (km/s)
/
Latitude / Longitude
Inclination (degrees)
Orbital Period (minutes)
Azimuth
Elevation
Range (km)
Doppler Factor

Next 0 passes for location: London (51.5072 / 0.1276)

Sorry there are no passes over London.